{"data":{"norad_id":32783,"intl_designator":"2008-021A","name":"CARTOSAT-2A","alt_names":[],"object_type":"PAYLOAD","status":"ACTIVE","operator":null,"country":"IND","launch_date":"2008-04-28","launch_site_code":"SRILR","launch_vehicle":null,"mission":null,"orbit_class":"UNKNOWN","rcs_meters":2.316,"size_class":null,"mass_kg":null,"dimensions":null,"purposes":["earth_obs"],"wikipedia_slug":null,"has_3d_model":false,"image_url":null,"decayed_at":null,"tle_current":{"epoch":"2026-09-20T03:36:09.393408Z","epoch_age_seconds":44600,"freshness":"FRESH","line1":"1 32783U 08021A   26263.15010872  .00000259  00000+0  41515-4 0  9992","line2":"2 32783  97.7543 308.5757 0012178 155.9689 204.2093 14.79331437992841","mean_motion":14.79331437,"eccentricity":0.0012178,"inclination_deg":97.7543,"raan_deg":308.5757,"arg_perigee_deg":155.9689,"mean_anomaly_deg":204.2093,"bstar":4.1515e-5,"rev_number":99284,"period_min":97.341269439946,"perigee_km":622.89900088453,"apogee_km":639.97151507607,"semimajor_km":7009.5722579803,"source":"CELESTRAK","updated_at":"2026-09-20T09:00:33.887846Z"}}}